"Pseudo-MPEC" for A115K6D

Created 2024 May 18 2:22:02 UT using Find_Orb

Click here for an explanation of pseudo-MPECs

 
 Astrometry: 
     A115K6D* C2024 04 03^WFp-:BP%stHRkA@XDnVov)yY4.o9k.RH/H/ID_(=3+I$Li6K8l@W68
     A115K6D  C2024 04 03hO?Gc'pWr%cthe)k/BtV%OZ+sqVe=QSmpT0RJg$)PyK;(=JKkP'pW68
     A115K6D  C2024 04 03ZaU-2fr*=%QgYa?])xgYwlO%/S*^1JrM%9lQCcVNPijJLsHmRE`[W68
     A115K6D  C2024 04 03$I5cJMttE!TJ;U8c1A:T1d*fN6ehri7aR;4'63\D]wElj.#1WB@7W68
     A115K6D  C2024 04 06,?q-h;y)Astrometrym:qNP*1OAbt3,\6=_G9%9s2X6]fXxebFYYW68
     A115K6D  C2024 04 06t0d___3s.ocL.1?hJ9T\)7H;6gW\!701UJJ:L7gZ`Q`obZ]fs7HVW68
     A115K6D  C2024 04 06NKql)Tm@?XOi\Cos1O4bj)$JfjwWlS_q$$d-X1'wj0@.5Tseh[UqW68
     A115K6D  C2024 04 069Y7]VHO/-!gredacted;1eODP0A@Ab!)wUC7clickKnP*_3`-I:=W68
     A115K6D  C2024 04 06k\@J3Pk-K-.._=0U:G'.weGdT[OIR@Oi:ShereEDcp,rYEii*7[lW68
     A115K6D  C2024 04 06hG:-MHBVKtQTck-?6,)a8U@]D/7NsuC@i*G7L#=Tqd%]61fQ#uq`W68
     A115K6D 0C2024 04 07@[wH5JC2Dfk$BIuCWlaWqDH\ey_`KyZ`w)O!bFmX7K!:FDrl_))+X07
     A115K6D 0C2024 04 07H+:/09iJjLSl-;8N)%OD%Mpq2Sio_jD^'.wJXhw14*'L^U/=^-v1X07
     A115K6D KC2024 04 08#mw17lp'0:ekHZ^9Erwx5[.,?;(*sO'*ftG^nfPp)F*A_):608%kI47
     A115K6D KC2024 04 08eemIivQs=%Md=u+mEh9O/RXIBh!4fS23!d-t'2!kPvPwAkJNw)QtI47
     A115K6D KC2024 04 09KGu9dFv)IRmVLtC(@M$pJ5oJ=m-Hg3pbLZXs0bvbU,iP)qJVO@'OM21
     A115K6D KC2024 04 09/vTCaO0NEMforUY+(Cm$,#dO-nFWJOQ+%;\YA%tJjII=$(,Jd2MNM21
     A115K6D 3C2024 04 09;4v;kGjv,I7h(YHW]lZ-c^5eD;i.'p6v*37O4(L@Qcc4veEZW%A@W86
     A115K6D 3C2024 04 09=V_aLOI-E9*Pu%:W+5cIRQE=vYN!nr1SY7\\x(u\2VX7p5w_RF7)W86
     A115K6D 3C2024 04 09E.%Y\ZY*explanationRD8e5tG4wJhS(Z#rWcJ#TTc3[yno*F9BfW86
     A115K6D 3C2024 04 09)3=sdga=JAuvR8F/lT2/hm/696V[_QjV$Tw@r!;Gwn_x#QRiat7pW86
     A115K6D KC2024 04 10dSc!/DWHOGX.0NN1iu/7Z-oe9^huPRO9-87e;g2Muh]#olkX^%eSX03
     A115K6D KC2024 04 10kX7KFgS;`.S%ItlwoZZrQ)BaHUm9G94@l*6-8i2c$m29'*j12L%4X03
     A115K6D KC2024 04 10S4'F[_ItRS09FyKb*/NC623G5yNn4[\o'ofAjuT1uT]7JAFy\e+^X03
     A115K6D 0B2024 04 11T*2rG_hN#7:D'3s6Dnj[_n+Gth3%A0lD(9)pg`.'^in2%mZIN@+KM49
     A115K6D 0B2024 04 11?%m,+sNo?LwXUHEo0'-SOsYBT\KNTVyt5G@t.5:Zgri5r^ySFR(?M49
     A115K6D 0B2024 04 11eKMHv!V,U*AePs+D.rqwai6`B\9$U$))%*7e9Aao`#F4.jB[;?v*M49
     A115K6D 0B2024 04 12U]kP_G.h*iHh3(!twQwP:BrO]kKBGbllam!PwDRf$eHY:EuECK_eM49
     A115K6D 0B2024 04 12w4Hi:DjG\o.PJ8'njGr0o+$;'I8,/W^wYM7$qnK-c37gL?[pf-\8M49
     A115K6D 0B2024 04 12*QsTCZ=n3E`7TIqPa^VsLFZ-\L73FE00xeDCK5_Y,.*\Ihl);rPOM49
     A115K6D ZC2024 04 21%2!q!p0[guYRsW.;6:$@PMbvWWo-,NsaEs=p^x]Y2iR4:*6U.0_[Q62
     A115K6D ZC2024 04 21L\l)+SiYMPYm)^F@qX/IF/dPys8/Xt5nfS@agG7FG_O`_oWqX'qAQ62
     A115K6D ZC2024 04 21EH@`)P4yU6Ruw?vh?C'n]f=;]OvUpuWj9qMC`kB;[ujXnfG4c(\GQ62
     A115K6D KC2024 04 25oT,)l;TgLDZxr#^=SyuC1Cc2WL;:MdnCJQi@+VlPjDH\sH5rw2^@I47
     A115K6D KC2024 04 25upxel)O:Mk@wMf'qe]?GVA7)Ig_E77!#]*RQ1,BNsUGTL27F3HgJI47
     A115K6D 0B2024 04 26Q,trEsc6tfMXs$jYr`t'aNSM@S`BA1s'_EX.p,Ow!.[!ZuOa\Xo/M49
     A115K6D 0B2024 04 26RHJtC[G$tl*,TTl]Q0_RsA.S7;So0G2fAV!hZu4?'Css%^fWW-?0M49
     A115K6D 0B2024 04 26#W%ViMN9I2;lFj?r#mE*r)p)`WIK4Z*E`tr4P18*qd\ih)hL!rv*M49
     A115K6D KC2024 05 072S-]ggh2N^FpTbv^$m#:6EC%qxwm)cF6GgXiT,_8H+bWG9o%,rtwI47
     A115K6D KC2024 05 07==V4p-'yp'iqIG:W-yIV^23+%(e1U_brVaLKBKB$omM.^$--ZFsGI47
     A115K6D KC2024 05 10+x)pd^U12EL^JndFrY:yOH7S/yg/rh;Kr1i0gouSnG7?U?hhYh[%I47
     A115K6D KC2024 05 10Kk$mQ[;V-'EHn9!=;l\WH!y65A.pG4a%'01@J8?B`4[;QP.ga0BaI47
     A115K6D 0B2024 05 11FW(/N)CicJ_s@q:jcY2$GH?RxM?`7G^sOm!YjEBn*o4Uc%?w7Cx9M49
     A115K6D 0B2024 05 11Q8DJx[fys:(f;;0`7$k-9FJr?GcF#YQo#!G8BF2\(RwDc8[A]BZ]M49

Station data:
(I47) Pierre Auger Observatory, Malargüe  (S35.495440 W69.449700)  Argentina.
    Observer M. Mašek. 0.3-m f/6.8 reflector + CCD.
(M21) Schiaparelli Southern Observatory, Hakos  (S23.236549 E16.361440)
   Namibia.  Observers A. Aletti, F. Bellini, L. Buzzi, G. Galli. Measurer L.
   Buzzi. 0.36-m f/8.4 reflector + CCD.
(M49) IAS Remote Observatory, Hakos  (S23.236549 E16.361720)  Namibia.
   Observers D. Husar, M. Junius. Measurer D. Husar. 0.25-m f/4.6 reflector +
   CCD.
(Q62) iTelescope Observatory, Siding Spring  (S31.273286 E149.064420)
   Australia/NSW.  Observers H. Sato, T. Prystavski, M. Mattiazzo, A. Pearce,
   F. D. Romanov. 0.51-m f/6.8 astrograph + CCD + f/4.5 focal reducer0.43-m
   f/6.8 astrograph + CCD + focal reducer0.43-m f/6.8 astrograph + CCD0.10-m
   f/5 astrograph + CCD0.127-m f/5.6 refractor + CCD0.50-m f/6.8 reflector +
   CCD0.30-m f/9 reflector + CCD.
(W68) ATLAS Chile, Rio Hurtado  (S30.471010 W70.764980)  Chile.  Observers L.
   Denneau, R. Siverd, J. Tonry, H. Weiland. Measurers L. Denneau, N.
   Erasmus, A. Fitzsimmons, A. Lawrence, J. Robinson, R. Siverd, J. Tonry, H.
   Weiland. 0.5-m reflector + CCD.
(W86) Cerro Tololo-LCO B  (S30.167325 W70.804670)  Chile.  Observer J. D.
   Armstrong. 1.0-m f/8 Ritchey-Chrétien + CCD.
(X03) Observatoire SADR, Poroto  (S30.533914 W70.796390)  Chile.  Observers
   J. L. Virlichie, P. Traverse. 0.35-m f/4.7 Newtonian reflector + CCD.
(X07) iTelescope Deep Sky Chile, Rio Hurtado  (S30.526389 W70.853610)  Chile.
    Observer H. Sato. 0.51-m f/6.8 astrograph + CCD.

Orbital elements:  A115K6D
   Perihelion 2025 Feb 10.20068 +/- 0.786 TT =  4:48:58 (JD 2460716.70068)
Epoch 2024 May 11.0 TT = JDT 2460441.5   Sa: 0.1085              AutoNEOCP
q   6.02992248 +/- 0.00226          (J2000 ecliptic)
H   10.71 G 0.15                    Peri.  289.62123 +/- 0.08
                                    Node   191.89593 +/- 0.017
e   1.0047101 +/- 0.00259           Incl.  131.51323 +/- 0.0020
From 43 observations 2024 Apr. 3-May 11; mean residual 0".43
Residuals in arcseconds: 
240403 W68  .39-  .63+    240409 M21  .21-  .20-    240421 Q62  .02-  .47+    
240403 W68  .64+  .86+    240409 W86  .05+  .05-    240421 Q62  .03-  .32-    
240403 W68  .41+  .36-    240409 W86  .06+  .10+    240425 I47  .32-  .50-    
240403 W68  .45+  .57-    240409 W86  .06+  .14+    240425 I47  .42+  1.0-    
240406 W68  .52-  .27+    240409 W86  .13+  .09+    240426 M49  .21+  .38+    
240406 W68  .59+  .53+    240410 X03  .22-  .40+    240426 M49  .45+  .38+    
240406 W68  .03+  .40-    240410 X03  .24+  .34+    240426 M49  .15+  .07-    
240406 W68  .29-  .28+    240410 X03  .66-  .64-    240507 I47  .64-  .13+    
240406 W68  .39-  .26-    240411 M49  .24-  .22+    240507 I47  .14-  .55-    
240406 W68  .08+  1.1-    240411 M49  .06-  .02+    240510 I47  1.1-  .60+    
240407 X07  .28-  .06+    240411 M49  .05+  .05-    240510 I47  .00   .78-    
240407 X07  .23-  .13+    240412 M49  .08-  .32+    240511 M49  .81+  .28+    
240408 I47  .46+  .20-    240412 M49  .07-  .22+    240511 M49  .57+  .25+    
240408 I47  .13-  .82-    240412 M49  .11-  .04+    
240409 M21  .05-  .03+    240421 Q62  .40+  1.2+    

Ephemerides (geocentric):
Date (UTC) HH   RA             Dec           delta  r     elong  mag " sig PA
---- --------  ------------   ------------  ------ ------ -----  --- --------
2024 05 18 02  22 11 41.877   -68 41 53.92  5.9713 6.3149 105.4 19.2 .379 100
2024 05 18 03  22 11 40.695   -68 42 24.52  5.9708 6.3148 105.4 19.2 .380 100
2024 05 18 04  22 11 39.508   -68 42 55.12  5.9702 6.3147 105.4 19.2 .382 100
2024 05 18 05  22 11 38.318   -68 43 25.74  5.9697 6.3146 105.4 19.2 .384 100
2024 05 18 06  22 11 37.123   -68 43 56.36  5.9692 6.3145 105.5 19.2 .386 101
2024 05 18 07  22 11 35.925   -68 44 26.99  5.9686 6.3144 105.5 19.2 .387 101
2024 05 18 08  22 11 34.722   -68 44 57.64  5.9681 6.3143 105.5 19.2 .389 101
2024 05 18 09  22 11 33.515   -68 45 28.29  5.9676 6.3143 105.5 19.2 .391 101
2024 05 18 10  22 11 32.304   -68 45 58.95  5.9671 6.3142 105.6 19.2 .392 101
2024 05 18 11  22 11 31.089   -68 46 29.62  5.9665 6.3141 105.6 19.2 .394 101
2024 05 18 12  22 11 29.870   -68 47 00.29  5.9660 6.3140 105.6 19.2 .396 101
2024 05 18 13  22 11 28.646   -68 47 30.98  5.9655 6.3139 105.6 19.2 .398 101
2024 05 18 14  22 11 27.419   -68 48 01.67  5.9650 6.3138 105.7 19.2 .399 101
2024 05 18 15  22 11 26.187   -68 48 32.38  5.9644 6.3137 105.7 19.2 .401 101
2024 05 18 16  22 11 24.951   -68 49 03.09  5.9639 6.3137 105.7 19.2 .403 101
2024 05 18 17  22 11 23.712   -68 49 33.81  5.9634 6.3136 105.8 19.2 .405 101
2024 05 18 18  22 11 22.468   -68 50 04.54  5.9629 6.3135 105.8 19.2 .406 101
2024 05 18 19  22 11 21.219   -68 50 35.28  5.9623 6.3134 105.8 19.2 .408 101
2024 05 18 20  22 11 19.967   -68 51 06.03  5.9618 6.3133 105.8 19.2 .410 101
2024 05 18 21  22 11 18.711   -68 51 36.79  5.9613 6.3132 105.9 19.2 .411 101
2024 05 18 22  22 11 17.450   -68 52 07.55  5.9608 6.3131 105.9 19.2 .413 101
2024 05 18 23  22 11 16.185   -68 52 38.33  5.9602 6.3131 105.9 19.2 .415 101
2024 05 19 00  22 11 14.916   -68 53 09.11  5.9597 6.3130 105.9 19.2 .417 101
2024 05 19 01  22 11 13.643   -68 53 39.90  5.9592 6.3129 106.0 19.2 .419 101
2024 05 19 02  22 11 12.366   -68 54 10.70  5.9587 6.3128 106.0 19.2 .420 101
2024 05 19 03  22 11 11.084   -68 54 41.51  5.9581 6.3127 106.0 19.2 .422 101
2024 05 19 04  22 11 09.798   -68 55 12.33  5.9576 6.3126 106.0 19.2 .424 101
2024 05 19 05  22 11 08.508   -68 55 43.15  5.9571 6.3125 106.1 19.2 .426 101
2024 05 19 06  22 11 07.214   -68 56 13.99  5.9566 6.3125 106.1 19.2 .427 101
2024 05 19 07  22 11 05.916   -68 56 44.83  5.9561 6.3124 106.1 19.2 .429 101
2024 05 19 08  22 11 04.613   -68 57 15.68  5.9555 6.3123 106.2 19.2 .431 101
2024 05 19 09  22 11 03.306   -68 57 46.54  5.9550 6.3122 106.2 19.2 .433 101
2024 05 19 10  22 11 01.995   -68 58 17.41  5.9545 6.3121 106.2 19.2 .434 102
2024 05 19 11  22 11 00.679   -68 58 48.29  5.9540 6.3120 106.2 19.2 .436 102
2024 05 19 12  22 10 59.360   -68 59 19.18  5.9534 6.3119 106.3 19.2 .438 102
2024 05 19 13  22 10 58.036   -68 59 50.07  5.9529 6.3119 106.3 19.2 .440 102
2024 05 19 14  22 10 56.708   -69 00 20.97  5.9524 6.3118 106.3 19.2 .442 102
2024 05 19 15  22 10 55.375   -69 00 51.88  5.9519 6.3117 106.3 19.2 .443 102
2024 05 19 16  22 10 54.038   -69 01 22.80  5.9514 6.3116 106.4 19.2 .445 102
2024 05 19 17  22 10 52.697   -69 01 53.73  5.9508 6.3115 106.4 19.2 .447 102
2024 05 19 18  22 10 51.352   -69 02 24.67  5.9503 6.3114 106.4 19.2 .449 102
2024 05 19 19  22 10 50.002   -69 02 55.61  5.9498 6.3113 106.4 19.2 .451 102
2024 05 19 20  22 10 48.648   -69 03 26.57  5.9493 6.3113 106.5 19.2 .452 102
2024 05 19 21  22 10 47.290   -69 03 57.53  5.9488 6.3112 106.5 19.2 .454 102
2024 05 19 22  22 10 45.928   -69 04 28.50  5.9483 6.3111 106.5 19.2 .456 102
2024 05 19 23  22 10 44.561   -69 04 59.48  5.9477 6.3110 106.6 19.2 .458 102
2024 05 20 00  22 10 43.190   -69 05 30.46  5.9472 6.3109 106.6 19.2 .460 102
2024 05 20 01  22 10 41.814   -69 06 01.46  5.9467 6.3108 106.6 19.2 .461 102